STARLINK-34534, 64763

Orbit data source: Space-Track

STARLINK-34534, 64763 is a payload satellite owned by SpaceX/Seattle (US) in LEO that was launched on Tue, 08 Jul 2025 UTC via an FALCON 9 launch vehicle from the Air Force Eastern Test Range (AFETR). Payload-class satellites include a variety of spacecraft equipped with specific instruments for various scientific and technological missions. These include communications satellites like Starlink; space stations such as the ISS; scientific satellites like the Hubble; Earth observation satellites from companies like Planet Labs, Umbra, and HawkEye 360; GPS; miniature CubeSats for education and research; and military/defense satellites.

Loading next visibility...
Identifier
64763, 2025-147J
Orbit
LEO
Country
Flag of USUS
Related business
Manufacturer
SpaceX/Seattle
Mission
Operational Commercial Communications
Bus & Motor
STARLINK V2MO, Unknown motor
Mass
575 kg wet, ~530 kg dry
Launch date (UTC)
2025-07-08 (1 year ago)
Launch vehicle
FALCON 9
Launch site
Air Force Eastern Test Range (AFETR)
Object type
Payload
Rocket body
Debris
Shape & HBR
Box + 1 Pan, 17.7 m
Radar Cross Section
41.120 m², Large (>1 m²)

Expand to show TLE details & history
Last TLE update: 20 hours ago

TLE from 20 hours ago
0 STARLINK-34534
1 64763U 25147J   26235.28585595  .00019359  00000-0  58234-3 0  9992
2 64763  53.1564 185.7216 0001138  87.8650 272.2482 15.34415247 64305
Epoch: 2026-08-23T06:51Z
TLE epoch observation values (Epoch: 2026-08-23T06:51:37.954Z)
Latitude
-0.00007°
Longitude
111.22931°
Altitude
463.528 km
Speed
7.636 km/s
True Right ascension
12h 22m 53s
True Declination
0° 00' 00"
Sunlit
Object was in daylight at epoch
Visualization orbit readout
Latitude
Unknown
Longitude
Unknown
Altitude
Unknown
Speed
Unknown
Apparent Right ascension
Unknown
Apparent Declination
Unknown
Sunlit
N/A
Visualization observer readout
Local Sidereal Time
17:51:04
Azimuth
Unknown
Elevation
Unknown
Doppler factor
Unknown
Orbital elements
Apogee altitude
463.694 km
Perigee altitude
462.137 km
Semi-major axis
6,841.052 km
Eccentricity
0.00011
Inclination
53.1564°
RAAN
185.7216°
Arg. of periapsis
87.865°
True anomaly
272.23517°
Mean anomaly
272.2482°
Eccentric anomaly
272.24168°
Mean motion
3.83583 °/min
Orbital period
93.85 mins
BSTAR
0.00058234
Loading maneuver chart data...
Computing Atmospheric mass density...
Loading historical data...
Loading historical data...
Loading historical data...
Loading historical data...
Loading historical data...
Loading historical data...
Loading historical data...

Documentation

Showing up to 5 results
|